User: anonymous   Login
Location: Vancouver
(49.2500°N, 123.1330°W)
Time: 12:40:56
(UTC-07:00)
Language:

S-56A Canister/Altair - Orbit

View from above orbital plane
View from above orbital plane
View from above satellite
View from above satellite

Ground track
Ground track

The orbit data is extracted from the following two-line orbital elements,

1    82U 61004B   16236.67933132 +.00000055 +00000-0 +75839-4 0  9999
2    82 038.8572 317.8981 1166832 198.3730 157.1170 12.25772708636750
Epoch (UTC): 23 August 2016 16:18:14
Eccentricity: 0.1166832
inclination: 38.8572°
perigee height: 640 km
apogee height: 2494 km
right ascension of ascending node: 317.8981°
argument of perigee: 198.3730°
revolutions per day: 12.25772708
mean anomaly at epoch: 157.1170°
orbit number at epoch: 63675

The dashed part of the orbit path shows where the satellite is in the earth's shadow,  

DLR